Time,TemperatureF,DewpointF,PressureIn,WindDirection,WindDirectionDegrees,WindSpeedMPH,WindSpeedGustMPH,Humidity,HourlyPrecipIn,Conditions,Clouds,dailyrainin,SolarRadiationWatts/m^2,SoftwareType,DateUTC
2013-11-08 00:01:00,30.0,30.0,29.53,NNW,337,0.0,1.0,100,0.00,,---,0.00,0.00,VWS V14.01,2013-11-08 05:01:00,
2013-11-08 00:03:00,30.0,30.0,29.54,South,180,0.0,4.0,100,0.00,,---,0.00,0.00,VWS V14.01,2013-11-08 05:03:00,
2013-11-08 00:06:00,30.0,30.0,29.54,NW,315,0.0,0.0,100,0.00,,---,0.00,0.00,VWS V14.01,2013-11-08 05:06:00,
2013-11-08 00:11:00,30.0,30.0,29.54,NNW,337,0.0,3.0,100,0.00,,---,0.00,0.00,VWS V14.01,2013-11-08 05:11:00,
2013-11-08 00:16:00,30.0,30.0,29.54,SW,225,1.0,3.0,100,0.00,,---,0.00,0.00,VWS V14.01,2013-11-08 05:16:00,
2013-11-08 00:21:00,30.0,30.0,29.55,NW,315,0.0,0.0,100,0.00,,---,0.00,0.00,VWS V14.01,2013-11-08 05:21:00,
2013-11-08 00:26:00,29.0,29.0,29.55,WNW,292,0.0,0.0,100,0.00,,---,0.00,0.00,VWS V14.01,2013-11-08 05:26:00,
2013-11-08 00:31:00,29.0,29.0,29.55,West,270,2.0,2.0,100,0.00,,---,0.00,0.00,VWS V14.01,2013-11-08 05:31:00,
2013-11-08 00:36:00,29.0,29.0,29.55,WNW,292,0.0,0.0,100,0.00,,---,0.00,0.00,VWS V14.01,2013-11-08 05:36:00,
2013-11-08 00:41:00,29.0,29.0,29.55,NE,45,0.0,0.0,100,0.00,,---,0.00,0.00,VWS V14.01,2013-11-08 05:41:00,
2013-11-08 00:46:00,29.0,29.0,29.55,SW,225,0.0,1.0,100,0.00,,---,0.00,0.00,VWS V14.01,2013-11-08 05:46:00,
2013-11-08 00:51:00,29.0,29.0,29.55,SW,225,0.0,0.0,100,0.00,,---,0.00,0.00,VWS V14.01,2013-11-08 05:51:00,
2013-11-08 00:56:00,28.0,28.0,29.55,WSW,247,0.0,0.0,100,0.00,,---,0.00,0.00,VWS V14.01,2013-11-08 05:56:00,
2013-11-08 01:01:00,28.0,28.0,29.55,SW,225,0.0,0.0,100,0.00,,---,0.00,0.00,VWS V14.01,2013-11-08 06:01:00,
2013-11-08 01:06:00,28.0,28.0,29.55,West,270,0.0,0.0,100,0.00,,---,0.00,0.00,VWS V14.01,2013-11-08 06:06:00,
2013-11-08 01:11:00,28.0,28.0,29.56,SW,225,0.0,0.0,100,0.00,,---,0.00,0.00,VWS V14.01,2013-11-08 06:11:00,
2013-11-08 01:16:00,27.0,27.0,29.56,SW,225,0.0,0.0,100,0.00,,---,0.00,0.00,VWS V14.01,2013-11-08 06:16:00,
2013-11-08 01:21:00,28.0,28.0,29.55,SW,225,0.0,0.0,100,0.00,,---,0.00,0.00,VWS V14.01,2013-11-08 06:21:00,
2013-11-08 01:26:00,27.0,27.0,29.55,SSW,202,0.0,1.0,100,0.00,,---,0.00,0.00,VWS V14.01,2013-11-08 06:26:00,
2013-11-08 01:31:00,28.0,28.0,29.55,WNW,292,0.0,0.0,100,0.00,,---,0.00,0.00,VWS V14.01,2013-11-08 06:31:00,
2013-11-08 01:36:00,27.0,27.0,29.55,SW,225,0.0,0.0,100,0.00,,---,0.00,0.00,VWS V14.01,2013-11-08 06:36:00,
2013-11-08 01:41:00,27.0,27.0,29.55,SW,225,0.0,0.0,100,0.00,,---,0.00,0.00,VWS V14.01,2013-11-08 06:41:00,
2013-11-08 01:46:00,27.0,27.0,29.55,SW,225,0.0,0.0,100,0.00,,---,0.00,0.00,VWS V14.01,2013-11-08 06:46:00,
2013-11-08 01:51:00,27.0,27.0,29.55,SSW,202,0.0,0.0,100,0.00,,---,0.00,0.00,VWS V14.01,2013-11-08 06:51:00,
2013-11-08 01:56:00,27.0,27.0,29.55,SSW,202,0.0,0.0,100,0.00,,---,0.00,0.00,VWS V14.01,2013-11-08 06:56:00,
2013-11-08 02:01:00,27.0,27.0,29.56,SSW,202,0.0,0.0,100,0.00,,---,0.00,0.00,VWS V14.01,2013-11-08 07:01:00,
2013-11-08 02:06:00,27.0,27.0,29.56,SSW,202,0.0,0.0,100,0.00,,---,0.00,0.00,VWS V14.01,2013-11-08 07:06:00,
2013-11-08 02:11:00,27.0,27.0,29.56,SSW,202,0.0,0.0,100,0.00,,---,0.00,0.00,VWS V14.01,2013-11-08 07:11:00,
2013-11-08 02:16:00,27.0,27.0,29.56,South,180,0.0,0.0,100,0.00,,---,0.00,0.00,VWS V14.01,2013-11-08 07:16:00,
2013-11-08 02:21:00,27.0,27.0,29.55,SW,225,0.0,0.0,100,0.00,,---,0.00,0.00,VWS V14.01,2013-11-08 07:21:00,
2013-11-08 02:26:00,27.0,27.0,29.55,SW,225,0.0,0.0,100,0.00,,---,0.00,0.00,VWS V14.01,2013-11-08 07:26:00,
2013-11-08 02:31:00,27.0,27.0,29.55,South,180,0.0,0.0,100,0.00,,---,0.00,0.00,VWS V14.01,2013-11-08 07:31:00,
2013-11-08 02:36:00,27.0,27.0,29.55,South,180,0.0,0.0,100,0.00,,---,0.00,0.00,VWS V14.01,2013-11-08 07:36:00,
2013-11-08 02:41:00,27.0,27.0,29.55,South,180,0.0,0.0,100,0.00,,---,0.00,0.00,VWS V14.01,2013-11-08 07:41:00,
2013-11-08 02:46:00,27.0,27.0,29.55,SW,225,0.0,0.0,100,0.00,,---,0.00,0.00,VWS V14.01,2013-11-08 07:46:00,
2013-11-08 02:51:00,27.0,27.0,29.55,NW,315,0.0,0.0,100,0.00,,---,0.00,0.00,VWS V14.01,2013-11-08 07:51:00,
2013-11-08 02:56:00,27.0,27.0,29.55,SW,225,0.0,0.0,100,0.00,,---,0.00,0.00,VWS V14.01,2013-11-08 07:56:00,
2013-11-08 03:01:00,27.0,27.0,29.55,SW,225,0.0,0.0,100,0.00,,---,0.00,0.00,VWS V14.01,2013-11-08 08:01:00,
2013-11-08 03:06:00,27.0,27.0,29.55,SW,225,0.0,0.0,100,0.00,,---,0.00,0.00,VWS V14.01,2013-11-08 08:06:00,
2013-11-08 03:11:00,27.0,27.0,29.55,WSW,247,0.0,0.0,100,0.00,,---,0.00,0.00,VWS V14.01,2013-11-08 08:11:00,
2013-11-08 03:16:00,27.0,27.0,29.55,WSW,247,0.0,0.0,100,0.00,,---,0.00,0.00,VWS V14.01,2013-11-08 08:16:00,
2013-11-08 03:21:00,27.0,27.0,29.56,WSW,247,0.0,0.0,100,0.00,,---,0.00,0.00,VWS V14.01,2013-11-08 08:21:00,
2013-11-08 03:26:00,26.0,26.0,29.56,WSW,247,0.0,0.0,100,0.00,,---,0.00,0.00,VWS V14.01,2013-11-08 08:26:00,
2013-11-08 03:31:00,27.0,27.0,29.55,SSW,202,0.0,0.0,100,0.00,,---,0.00,0.00,VWS V14.01,2013-11-08 08:31:00,
2013-11-08 03:36:00,26.0,26.0,29.55,SSW,202,0.0,0.0,100,0.00,,---,0.00,0.00,VWS V14.01,2013-11-08 08:36:00,
2013-11-08 03:41:00,27.0,27.0,29.56,SSW,202,0.0,0.0,100,0.00,,---,0.00,0.00,VWS V14.01,2013-11-08 08:41:00,
2013-11-08 03:46:00,26.0,26.0,29.56,West,270,0.0,0.0,100,0.00,,---,0.00,0.00,VWS V14.01,2013-11-08 08:46:00,
2013-11-08 03:51:00,27.0,27.0,29.56,NW,315,0.0,0.0,100,0.00,,---,0.00,0.00,VWS V14.01,2013-11-08 08:51:00,
2013-11-08 03:56:00,27.0,27.0,29.56,West,270,0.0,0.0,100,0.00,,---,0.00,0.00,VWS V14.01,2013-11-08 08:56:00,
2013-11-08 04:01:00,27.0,27.0,29.56,SSW,202,0.0,0.0,100,0.00,,---,0.00,0.00,VWS V14.01,2013-11-08 09:01:00,
2013-11-08 04:06:00,27.0,27.0,29.56,SSW,202,0.0,0.0,100,0.00,,---,0.00,0.00,VWS V14.01,2013-11-08 09:06:00,
2013-11-08 04:11:00,27.0,27.0,29.56,WSW,247,0.0,0.0,100,0.00,,---,0.00,0.00,VWS V14.01,2013-11-08 09:11:00,
2013-11-08 04:16:00,27.0,27.0,29.56,South,180,0.0,0.0,100,0.00,,---,0.00,0.00,VWS V14.01,2013-11-08 09:16:00,
2013-11-08 04:21:00,28.0,28.0,29.56,WSW,247,0.0,0.0,100,0.00,,---,0.00,0.00,VWS V14.01,2013-11-08 09:21:00,
2013-11-08 04:26:00,28.0,28.0,29.56,NW,315,0.0,0.0,100,0.00,,---,0.00,0.00,VWS V14.01,2013-11-08 09:26:00,
2013-11-08 04:31:00,28.0,28.0,29.57,West,270,0.0,3.0,100,0.00,,---,0.00,0.00,VWS V14.01,2013-11-08 09:31:00,
2013-11-08 04:36:00,28.0,28.0,29.57,NW,315,3.0,3.0,100,0.00,,---,0.00,0.00,VWS V14.01,2013-11-08 09:36:00,
2013-11-08 04:41:00,29.0,29.0,29.56,SSW,202,0.0,1.0,100,0.00,,---,0.00,0.00,VWS V14.01,2013-11-08 09:41:00,
2013-11-08 04:46:00,29.0,29.0,29.56,North,360,0.0,0.0,100,0.00,,---,0.00,0.00,VWS V14.01,2013-11-08 09:46:00,
2013-11-08 04:51:00,29.0,29.0,29.56,SSW,202,0.0,0.0,100,0.00,,---,0.00,0.00,VWS V14.01,2013-11-08 09:51:00,
2013-11-08 04:56:00,29.0,29.0,29.56,SSW,202,0.0,0.0,100,0.00,,---,0.00,0.00,VWS V14.01,2013-11-08 09:56:00,
2013-11-08 05:01:00,29.0,29.0,29.56,SE,135,0.0,1.0,100,0.00,,---,0.00,0.00,VWS V14.01,2013-11-08 10:01:00,
2013-11-08 05:06:00,28.0,28.0,29.56,South,180,0.0,1.0,100,0.00,,---,0.00,0.00,VWS V14.01,2013-11-08 10:06:00,
2013-11-08 05:11:00,28.0,28.0,29.57,SSW,202,0.0,0.0,100,0.00,,---,0.00,0.00,VWS V14.01,2013-11-08 10:11:00,
2013-11-08 05:16:00,28.0,28.0,29.57,NW,315,0.0,0.0,100,0.00,,---,0.00,0.00,VWS V14.01,2013-11-08 10:16:00,
2013-11-08 05:21:00,28.0,28.0,29.58,North,360,0.0,0.0,100,0.00,,---,0.00,0.00,VWS V14.01,2013-11-08 10:21:00,
2013-11-08 05:26:00,28.0,28.0,29.58,NW,315,0.0,0.0,100,0.00,,---,0.00,0.00,VWS V14.01,2013-11-08 10:26:00,
2013-11-08 05:31:00,28.0,28.0,29.58,SSW,202,0.0,0.0,100,0.00,,---,0.00,0.00,VWS V14.01,2013-11-08 10:31:00,
2013-11-08 05:36:00,28.0,28.0,29.58,NNW,337,2.0,2.0,100,0.00,,---,0.00,0.00,VWS V14.01,2013-11-08 10:36:00,
2013-11-08 05:41:00,28.0,28.0,29.58,West,270,0.0,0.0,100,0.00,,---,0.00,0.00,VWS V14.01,2013-11-08 10:41:00,
2013-11-08 05:46:00,28.0,28.0,29.58,NW,315,0.0,0.0,100,0.00,,---,0.00,0.00,VWS V14.01,2013-11-08 10:46:00,
2013-11-08 05:51:00,28.0,28.0,29.59,WNW,292,0.0,2.0,100,0.00,,---,0.00,0.00,VWS V14.01,2013-11-08 10:51:00,
2013-11-08 05:56:00,28.0,28.0,29.59,WNW,292,0.0,0.0,100,0.00,,---,0.00,0.00,VWS V14.01,2013-11-08 10:56:00,
2013-11-08 06:01:00,28.0,28.0,29.59,WNW,292,0.0,0.0,100,0.00,,---,0.00,0.00,VWS V14.01,2013-11-08 11:01:00,
2013-11-08 06:06:00,27.0,27.0,29.59,WNW,292,1.0,3.0,100,0.00,,---,0.00,0.00,VWS V14.01,2013-11-08 11:06:00,
2013-11-08 06:11:00,28.0,28.0,29.59,West,270,1.0,2.0,100,0.00,,---,0.00,0.00,VWS V14.01,2013-11-08 11:11:00,
2013-11-08 06:16:00,28.0,28.0,29.59,West,270,0.0,0.0,100,0.00,,---,0.00,0.00,VWS V14.01,2013-11-08 11:16:00,
2013-11-08 06:21:00,28.0,28.0,29.59,NW,315,0.0,0.0,100,0.00,,---,0.00,0.00,VWS V14.01,2013-11-08 11:21:00,
2013-11-08 06:26:00,28.0,28.0,29.59,SW,225,0.0,1.0,100,0.00,,---,0.00,0.00,VWS V14.01,2013-11-08 11:26:00,
2013-11-08 06:31:00,28.0,28.0,29.59,SW,225,0.0,0.0,100,0.00,,---,0.00,0.00,VWS V14.01,2013-11-08 11:31:00,
2013-11-08 06:36:00,28.0,28.0,29.59,WSW,247,0.0,0.0,100,0.00,,---,0.00,0.00,VWS V14.01,2013-11-08 11:36:00,
2013-11-08 06:41:00,28.0,28.0,29.60,West,270,0.0,3.0,100,0.00,,---,0.00,0.00,VWS V14.01,2013-11-08 11:41:00,
2013-11-08 06:46:00,28.0,28.0,29.60,SW,225,0.0,1.0,100,0.00,,---,0.00,0.00,VWS V14.01,2013-11-08 11:46:00,
2013-11-08 06:51:00,28.0,28.0,29.60,WNW,292,0.0,0.0,100,0.00,,---,0.00,0.00,VWS V14.01,2013-11-08 11:51:00,
2013-11-08 06:56:00,27.0,27.0,29.60,SW,225,0.0,0.0,100,0.00,,---,0.00,0.00,VWS V14.01,2013-11-08 11:56:00,
2013-11-08 07:01:00,27.0,27.0,29.60,East,90,0.0,0.0,100,0.00,,---,0.00,0.00,VWS V14.01,2013-11-08 12:01:00,
2013-11-08 07:06:00,27.0,27.0,29.60,WSW,247,0.0,0.0,100,0.00,,---,0.00,0.00,VWS V14.01,2013-11-08 12:06:00,
2013-11-08 07:11:00,28.0,28.0,29.60,WSW,247,0.0,0.0,100,0.00,,---,0.00,0.00,VWS V14.01,2013-11-08 12:11:00,
2013-11-08 07:16:00,27.0,27.0,29.60,WSW,247,0.0,0.0,100,0.00,,---,0.00,0.00,VWS V14.01,2013-11-08 12:16:00,
2013-11-08 07:21:00,27.0,27.0,29.61,West,270,0.0,0.0,100,0.00,,---,0.00,0.00,VWS V14.01,2013-11-08 12:21:00,
2013-11-08 07:26:00,26.0,26.0,29.61,West,270,0.0,0.0,100,0.00,,---,0.00,0.00,VWS V14.01,2013-11-08 12:26:00,
2013-11-08 07:31:00,26.0,26.0,29.61,NNW,337,0.0,0.0,100,0.00,,---,0.00,0.00,VWS V14.01,2013-11-08 12:31:00,
2013-11-08 07:36:00,26.0,26.0,29.61,NNW,337,0.0,0.0,100,0.00,,---,0.00,0.00,VWS V14.01,2013-11-08 12:36:00,
2013-11-08 07:41:00,27.0,27.0,29.61,NNW,337,0.0,0.0,100,0.00,,---,0.00,0.00,VWS V14.01,2013-11-08 12:41:00,
2013-11-08 07:46:00,27.0,27.0,29.61,East,90,0.0,0.0,100,0.00,,---,0.00,0.00,VWS V14.01,2013-11-08 12:46:00,
2013-11-08 07:51:00,28.0,28.0,29.62,NW,315,0.0,0.0,100,0.00,,---,0.00,0.00,VWS V14.01,2013-11-08 12:51:00,
2013-11-08 07:56:00,28.0,28.0,29.62,NW,315,0.0,0.0,100,0.00,,---,0.00,0.00,VWS V14.01,2013-11-08 12:56:00,
2013-11-08 08:01:00,29.0,29.0,29.62,NW,315,0.0,1.0,100,0.00,,---,0.00,0.00,VWS V14.01,2013-11-08 13:01:00,
2013-11-08 08:06:00,29.0,29.0,29.62,NW,315,0.0,0.0,100,0.00,,---,0.00,0.00,VWS V14.01,2013-11-08 13:06:00,
2013-11-08 08:11:00,30.0,30.0,29.62,SW,225,0.0,0.0,100,0.00,,---,0.00,0.00,VWS V14.01,2013-11-08 13:11:00,
2013-11-08 08:16:00,30.0,30.0,29.62,NW,315,1.0,2.0,100,0.00,,---,0.00,0.00,VWS V14.01,2013-11-08 13:16:00,
2013-11-08 08:21:00,31.0,31.0,29.62,WSW,247,0.0,0.0,100,0.00,,---,0.00,0.00,VWS V14.01,2013-11-08 13:21:00,
2013-11-08 08:26:00,31.0,31.0,29.62,NW,315,0.0,2.0,100,0.00,,---,0.00,0.00,VWS V14.01,2013-11-08 13:26:00,
2013-11-08 08:31:00,31.0,31.0,29.62,NW,315,0.0,0.0,100,0.00,,---,0.00,0.00,VWS V14.01,2013-11-08 13:31:00,
2013-11-08 08:36:00,31.0,31.0,29.62,West,270,0.0,0.0,100,0.00,,---,0.00,0.00,VWS V14.01,2013-11-08 13:36:00,
2013-11-08 08:41:00,32.0,32.0,29.62,SW,225,0.0,0.0,100,0.00,,---,0.00,0.00,VWS V14.01,2013-11-08 13:41:00,
2013-11-08 08:46:00,32.0,32.0,29.62,WSW,247,0.0,0.0,100,0.00,,---,0.00,0.00,VWS V14.01,2013-11-08 13:46:00,
2013-11-08 08:51:00,33.0,32.5,29.61,West,270,0.0,1.0,98,0.00,,---,0.00,0.00,VWS V14.01,2013-11-08 13:51:00,
2013-11-08 08:56:00,33.0,32.8,29.61,West,270,0.0,0.0,99,0.00,,---,0.00,0.00,VWS V14.01,2013-11-08 13:56:00,
2013-11-08 09:01:00,34.0,34.0,29.61,WSW,247,0.0,0.0,100,0.00,,---,0.00,0.00,VWS V14.01,2013-11-08 14:01:00,
2013-11-08 09:06:00,34.0,33.8,29.61,NW,315,2.0,4.0,99,0.00,,---,0.00,0.00,VWS V14.01,2013-11-08 14:06:00,
2013-11-08 09:11:00,35.0,33.2,29.60,NW,315,0.0,0.0,93,0.00,,---,0.00,0.00,VWS V14.01,2013-11-08 14:11:00,
2013-11-08 09:16:00,35.0,32.4,29.60,West,270,0.0,3.0,90,0.00,,---,0.00,0.00,VWS V14.01,2013-11-08 14:16:00,
2013-11-08 09:21:00,36.0,34.2,29.61,NW,315,0.0,0.0,93,0.00,,---,0.00,0.00,VWS V14.01,2013-11-08 14:21:00,
2013-11-08 09:26:00,36.0,34.7,29.61,East,90,0.0,3.0,95,0.00,,---,0.00,0.00,VWS V14.01,2013-11-08 14:26:00,
2013-11-08 09:31:00,37.0,34.1,29.59,NE,45,1.0,3.0,89,0.00,,---,0.00,0.00,VWS V14.01,2013-11-08 14:31:00,
2013-11-08 09:36:00,38.0,35.6,29.59,NW,315,0.0,2.0,91,0.00,,---,0.00,0.00,VWS V14.01,2013-11-08 14:36:00,
2013-11-08 09:41:00,39.0,34.9,29.58,NW,315,2.0,3.0,85,0.00,,---,0.00,0.00,VWS V14.01,2013-11-08 14:41:00,
2013-11-08 09:46:00,38.0,33.9,29.58,NW,315,1.0,4.0,85,0.00,,---,0.00,0.00,VWS V14.01,2013-11-08 14:46:00,
2013-11-08 09:51:00,39.0,34.3,29.57,West,270,0.0,4.0,83,0.00,,---,0.00,0.00,VWS V14.01,2013-11-08 14:51:00,
2013-11-08 09:56:00,39.0,34.9,29.57,NW,315,2.0,4.0,85,0.00,,---,0.00,0.00,VWS V14.01,2013-11-08 14:56:00,
2013-11-08 10:01:00,39.0,34.6,29.57,North,360,2.0,6.0,84,0.00,,---,0.00,0.00,VWS V14.01,2013-11-08 15:01:00,
2013-11-08 10:06:00,40.0,34.3,29.57,NW,315,4.0,5.0,80,0.00,,---,0.00,0.00,VWS V14.01,2013-11-08 15:06:00,
2013-11-08 10:11:00,41.0,36.2,29.57,South,180,0.0,0.0,83,0.00,,---,0.00,0.00,VWS V14.01,2013-11-08 15:11:00,
2013-11-08 10:16:00,42.0,36.6,29.57,South,180,0.0,0.0,81,0.00,,---,0.00,0.00,VWS V14.01,2013-11-08 15:16:00,
2013-11-08 10:21:00,43.0,37.3,29.57,SE,135,2.0,4.0,80,0.00,,---,0.00,0.00,VWS V14.01,2013-11-08 15:21:00,
2013-11-08 10:26:00,42.0,34.0,29.57,NW,315,0.0,3.0,73,0.00,,---,0.00,0.00,VWS V14.01,2013-11-08 15:26:00,
2013-11-08 10:31:00,44.0,37.3,29.57,SSW,202,4.0,5.0,77,0.00,,---,0.00,0.00,VWS V14.01,2013-11-08 15:31:00,
2013-11-08 10:36:00,43.0,34.6,29.57,NW,315,1.0,4.0,72,0.00,,---,0.00,0.00,VWS V14.01,2013-11-08 15:36:00,
2013-11-08 10:41:00,44.0,35.9,29.57,NE,45,0.0,0.0,73,0.00,,---,0.00,0.00,VWS V14.01,2013-11-08 15:41:00,
2013-11-08 10:46:00,44.0,36.6,29.57,SW,225,2.0,4.0,75,0.00,,---,0.00,0.00,VWS V14.01,2013-11-08 15:46:00,
2013-11-08 10:51:00,45.0,36.5,29.56,West,270,4.0,4.0,72,0.00,,---,0.00,0.00,VWS V14.01,2013-11-08 15:51:00,
2013-11-08 10:56:00,45.0,35.5,29.56,NNW,337,0.0,5.0,69,0.00,,---,0.00,0.00,VWS V14.01,2013-11-08 15:56:00,
2013-11-08 11:01:00,46.0,37.1,29.55,North,360,0.0,1.0,71,0.00,,---,0.00,0.00,VWS V14.01,2013-11-08 16:01:00,
2013-11-08 11:06:00,45.0,34.7,29.55,SSW,202,0.0,0.0,67,0.00,,---,0.00,0.00,VWS V14.01,2013-11-08 16:06:00,
2013-11-08 11:11:00,46.0,34.5,29.55,NW,315,3.0,4.0,64,0.00,,---,0.00,0.00,VWS V14.01,2013-11-08 16:11:00,
2013-11-08 11:16:00,46.0,34.9,29.55,NW,315,2.0,3.0,65,0.00,,---,0.00,0.00,VWS V14.01,2013-11-08 16:16:00,
2013-11-08 11:21:00,46.0,35.7,29.55,WSW,247,3.0,5.0,67,0.00,,---,0.00,0.00,VWS V14.01,2013-11-08 16:21:00,
2013-11-08 11:26:00,46.0,33.3,29.55,NW,315,4.0,4.0,61,0.00,,---,0.00,0.00,VWS V14.01,2013-11-08 16:26:00,
2013-11-08 11:31:00,46.0,34.9,29.54,East,90,2.0,3.0,65,0.00,,---,0.00,0.00,VWS V14.01,2013-11-08 16:31:00,
2013-11-08 11:36:00,46.0,32.9,29.54,WNW,292,3.0,5.0,60,0.00,,---,0.00,0.00,VWS V14.01,2013-11-08 16:36:00,
2013-11-08 11:41:00,47.0,34.7,29.54,WNW,292,3.0,4.0,62,0.00,,---,0.00,0.00,VWS V14.01,2013-11-08 16:41:00,
2013-11-08 11:46:00,47.0,34.3,29.54,NW,315,3.0,4.0,61,0.00,,---,0.00,0.00,VWS V14.01,2013-11-08 16:46:00,
2013-11-08 11:51:00,47.0,33.8,29.54,WSW,247,1.0,3.0,60,0.00,,---,0.00,0.00,VWS V14.01,2013-11-08 16:51:00,
2013-11-08 11:56:00,47.0,34.3,29.54,WSW,247,0.0,5.0,61,0.00,,---,0.00,0.00,VWS V14.01,2013-11-08 16:56:00,
2013-11-08 12:01:00,48.0,33.9,29.53,SW,225,0.0,4.0,58,0.00,,---,0.00,0.00,VWS V14.01,2013-11-08 17:01:00,
2013-11-08 12:06:00,48.0,34.8,29.53,SSE,157,0.0,3.0,60,0.00,,---,0.00,0.00,VWS V14.01,2013-11-08 17:06:00,
2013-11-08 12:11:00,49.0,34.5,29.52,South,180,3.0,4.0,57,0.00,,---,0.00,0.00,VWS V14.01,2013-11-08 17:11:00,
2013-11-08 12:16:00,48.0,33.5,29.52,SE,135,0.0,3.0,57,0.00,,---,0.00,0.00,VWS V14.01,2013-11-08 17:16:00,
2013-11-08 12:21:00,49.0,34.0,29.52,WSW,247,3.0,3.0,56,0.00,,---,0.00,0.00,VWS V14.01,2013-11-08 17:21:00,
2013-11-08 12:26:00,49.0,34.5,29.52,SW,225,2.0,2.0,57,0.00,,---,0.00,0.00,VWS V14.01,2013-11-08 17:26:00,
2013-11-08 12:31:00,49.0,34.5,29.51,NW,315,0.0,4.0,57,0.00,,---,0.00,0.00,VWS V14.01,2013-11-08 17:31:00,
2013-11-08 12:36:00,50.0,34.5,29.51,South,180,3.0,4.0,55,0.00,,---,0.00,0.00,VWS V14.01,2013-11-08 17:36:00,
2013-11-08 12:41:00,50.0,34.5,29.51,East,90,3.0,4.0,55,0.00,,---,0.00,0.00,VWS V14.01,2013-11-08 17:41:00,
2013-11-08 12:46:00,49.0,33.5,29.51,East,90,3.0,4.0,55,0.00,,---,0.00,0.00,VWS V14.01,2013-11-08 17:46:00,
2013-11-08 12:51:00,50.0,33.1,29.51,West,270,0.0,3.0,52,0.00,,---,0.00,0.00,VWS V14.01,2013-11-08 17:51:00,
2013-11-08 12:56:00,50.0,33.1,29.51,WNW,292,0.0,4.0,52,0.00,,---,0.00,0.00,VWS V14.01,2013-11-08 17:56:00,
2013-11-08 13:01:00,51.0,35.0,29.50,NE,45,0.0,1.0,54,0.00,,---,0.00,0.00,VWS V14.01,2013-11-08 18:01:00,
2013-11-08 13:06:00,51.0,33.0,29.50,East,90,0.0,3.0,50,0.00,,---,0.00,0.00,VWS V14.01,2013-11-08 18:06:00,
2013-11-08 13:11:00,51.0,33.0,29.49,SE,135,3.0,4.0,50,0.00,,---,0.00,0.00,VWS V14.01,2013-11-08 18:11:00,
2013-11-08 13:16:00,50.0,33.1,29.49,South,180,6.0,7.0,52,0.00,,---,0.00,0.00,VWS V14.01,2013-11-08 18:16:00,
2013-11-08 13:21:00,51.0,34.0,29.49,South,180,6.0,6.0,52,0.00,,---,0.00,0.00,VWS V14.01,2013-11-08 18:21:00,
2013-11-08 13:26:00,51.0,32.5,29.49,SE,135,4.0,6.0,49,0.00,,---,0.00,0.00,VWS V14.01,2013-11-08 18:26:00,
2013-11-08 13:31:00,51.0,34.0,29.49,South,180,4.0,4.0,52,0.00,,---,0.00,0.00,VWS V14.01,2013-11-08 18:31:00,
2013-11-08 13:36:00,50.0,31.6,29.49,NW,315,1.0,4.0,49,0.00,,---,0.00,0.00,VWS V14.01,2013-11-08 18:36:00,
2013-11-08 13:41:00,50.0,31.1,29.47,East,90,0.0,2.0,48,0.00,,---,0.00,0.00,VWS V14.01,2013-11-08 18:41:00,
2013-11-08 13:46:00,50.0,32.6,29.47,West,270,1.0,4.0,51,0.00,,---,0.00,0.00,VWS V14.01,2013-11-08 18:46:00,
2013-11-08 13:51:00,51.0,33.0,29.47,NW,315,0.0,3.0,50,0.00,,---,0.00,0.00,VWS V14.01,2013-11-08 18:51:00,
2013-11-08 13:56:00,51.0,31.5,29.47,SW,225,3.0,4.0,47,0.00,,---,0.00,0.00,VWS V14.01,2013-11-08 18:56:00,
2013-11-08 14:01:00,52.0,32.9,29.47,West,270,0.0,0.0,48,0.00,,---,0.00,0.00,VWS V14.01,2013-11-08 19:01:00,
2013-11-08 14:06:00,52.0,32.9,29.47,North,360,0.0,5.0,48,0.00,,---,0.00,0.00,VWS V14.01,2013-11-08 19:06:00,
2013-11-08 14:11:00,52.0,33.5,29.46,SSE,157,5.0,7.0,49,0.00,,---,0.00,0.00,VWS V14.01,2013-11-08 19:11:00,
2013-11-08 14:16:00,52.0,34.5,29.46,WSW,247,2.0,6.0,51,0.00,,---,0.00,0.00,VWS V14.01,2013-11-08 19:16:00,
2013-11-08 14:21:00,52.0,32.9,29.46,North,360,0.0,4.0,48,0.00,,---,0.00,0.00,VWS V14.01,2013-11-08 19:21:00,
2013-11-08 14:26:00,52.0,34.0,29.46,South,180,0.0,3.0,50,0.00,,---,0.00,0.00,VWS V14.01,2013-11-08 19:26:00,
2013-11-08 14:31:00,52.0,33.5,29.45,South,180,5.0,9.0,49,0.00,,---,0.00,0.00,VWS V14.01,2013-11-08 19:31:00,
2013-11-08 14:36:00,52.0,32.9,29.45,SW,225,0.0,0.0,48,0.00,,---,0.00,0.00,VWS V14.01,2013-11-08 19:36:00,
2013-11-08 14:41:00,53.0,32.8,29.45,SE,135,0.0,4.0,46,0.00,,---,0.00,0.00,VWS V14.01,2013-11-08 19:41:00,
2013-11-08 14:46:00,52.0,32.4,29.45,South,180,5.0,6.0,47,0.00,,---,0.00,0.00,VWS V14.01,2013-11-08 19:46:00,
2013-11-08 14:51:00,51.0,31.5,29.44,SSW,202,3.0,5.0,47,0.00,,---,0.00,0.00,VWS V14.01,2013-11-08 19:51:00,
2013-11-08 14:56:00,52.0,31.9,29.44,South,180,3.0,6.0,46,0.00,,---,0.00,0.00,VWS V14.01,2013-11-08 19:56:00,
2013-11-08 15:01:00,52.0,31.3,29.45,South,180,0.0,4.0,45,0.00,,---,0.00,0.00,VWS V14.01,2013-11-08 20:01:00,
2013-11-08 15:06:00,52.0,32.9,29.45,South,180,5.0,8.0,48,0.00,,---,0.00,0.00,VWS V14.01,2013-11-08 20:06:00,
2013-11-08 15:11:00,51.0,31.5,29.45,SE,135,3.0,4.0,47,0.00,,---,0.00,0.00,VWS V14.01,2013-11-08 20:11:00,
2013-11-08 15:16:00,50.0,30.6,29.45,SE,135,6.0,7.0,47,0.00,,---,0.00,0.00,VWS V14.01,2013-11-08 20:16:00,
2013-11-08 15:21:00,51.0,30.4,29.45,South,180,3.0,4.0,45,0.00,,---,0.00,0.00,VWS V14.01,2013-11-08 20:21:00,
2013-11-08 15:26:00,51.0,31.5,29.45,South,180,0.0,2.0,47,0.00,,---,0.00,0.00,VWS V14.01,2013-11-08 20:26:00,
2013-11-08 15:31:00,51.0,31.0,29.45,SE,135,1.0,3.0,46,0.00,,---,0.00,0.00,VWS V14.01,2013-11-08 20:31:00,
2013-11-08 15:36:00,51.0,29.9,29.45,South,180,0.0,4.0,44,0.00,,---,0.00,0.00,VWS V14.01,2013-11-08 20:36:00,
2013-11-08 15:41:00,52.0,32.4,29.43,South,180,1.0,3.0,47,0.00,,---,0.00,0.00,VWS V14.01,2013-11-08 20:41:00,
2013-11-08 15:46:00,52.0,31.9,29.43,SSW,202,1.0,3.0,46,0.00,,---,0.00,0.00,VWS V14.01,2013-11-08 20:46:00,
2013-11-08 15:51:00,51.0,31.5,29.44,WSW,247,1.0,4.0,47,0.00,,---,0.00,0.00,VWS V14.01,2013-11-08 20:51:00,
2013-11-08 15:56:00,52.0,32.9,29.44,South,180,1.0,4.0,48,0.00,,---,0.00,0.00,VWS V14.01,2013-11-08 20:56:00,
2013-11-08 16:01:00,52.0,31.9,29.44,NW,315,1.0,1.0,46,0.00,,---,0.00,0.00,VWS V14.01,2013-11-08 21:01:00,
2013-11-08 16:06:00,52.0,31.3,29.44,NE,45,0.0,5.0,45,0.00,,---,0.00,0.00,VWS V14.01,2013-11-08 21:06:00,
2013-11-08 16:11:00,52.0,30.8,29.43,SSE,157,3.0,4.0,44,0.00,,---,0.00,0.00,VWS V14.01,2013-11-08 21:11:00,
2013-11-08 16:16:00,51.0,30.4,29.43,SW,225,3.0,5.0,45,0.00,,---,0.00,0.00,VWS V14.01,2013-11-08 21:16:00,
2013-11-08 16:21:00,50.0,28.4,29.44,SSW,202,0.0,3.0,43,0.00,,---,0.00,0.00,VWS V14.01,2013-11-08 21:21:00,
2013-11-08 16:26:00,49.0,29.1,29.44,South,180,3.0,3.0,46,0.00,,---,0.00,0.00,VWS V14.01,2013-11-08 21:26:00,
2013-11-08 16:31:00,49.0,29.1,29.45,SSE,157,0.0,0.0,46,0.00,,---,0.00,0.00,VWS V14.01,2013-11-08 21:31:00,
2013-11-08 16:36:00,48.0,29.3,29.45,SSW,202,3.0,3.0,48,0.00,,---,0.00,0.00,VWS V14.01,2013-11-08 21:36:00,
2013-11-08 16:41:00,48.0,30.3,29.45,South,180,1.0,3.0,50,0.00,,---,0.00,0.00,VWS V14.01,2013-11-08 21:41:00,
2013-11-08 16:46:00,47.0,29.8,29.45,SSE,157,0.0,0.0,51,0.00,,---,0.00,0.00,VWS V14.01,2013-11-08 21:46:00,
2013-11-08 16:51:00,47.0,29.8,29.45,South,180,0.0,0.0,51,0.00,,---,0.00,0.00,VWS V14.01,2013-11-08 21:51:00,
2013-11-08 16:56:00,47.0,30.3,29.45,SSE,157,0.0,1.0,52,0.00,,---,0.00,0.00,VWS V14.01,2013-11-08 21:56:00,
2013-11-08 17:01:00,47.0,29.8,29.45,South,180,1.0,2.0,51,0.00,,---,0.00,0.00,VWS V14.01,2013-11-08 22:01:00,
2013-11-08 17:06:00,47.0,30.3,29.45,South,180,2.0,3.0,52,0.00,,---,0.00,0.00,VWS V14.01,2013-11-08 22:06:00,
2013-11-08 17:11:00,47.0,30.3,29.45,South,180,2.0,2.0,52,0.00,,---,0.00,0.00,VWS V14.01,2013-11-08 22:11:00,
2013-11-08 17:16:00,46.0,29.4,29.45,SSW,202,0.0,0.0,52,0.00,,---,0.00,0.00,VWS V14.01,2013-11-08 22:16:00,
2013-11-08 17:21:00,46.0,29.8,29.46,South,180,0.0,3.0,53,0.00,,---,0.00,0.00,VWS V14.01,2013-11-08 22:21:00,
2013-11-08 17:26:00,46.0,29.8,29.46,SSE,157,2.0,3.0,53,0.00,,---,0.00,0.00,VWS V14.01,2013-11-08 22:26:00,
2013-11-08 17:31:00,46.0,30.8,29.47,South,180,1.0,3.0,55,0.00,,---,0.00,0.00,VWS V14.01,2013-11-08 22:31:00,
2013-11-08 17:36:00,45.0,30.3,29.47,South,180,1.0,1.0,56,0.00,,---,0.00,0.00,VWS V14.01,2013-11-08 22:36:00,
2013-11-08 17:41:00,46.0,30.8,29.47,SSE,157,0.0,0.0,55,0.00,,---,0.00,0.00,VWS V14.01,2013-11-08 22:41:00,
2013-11-08 17:46:00,45.0,30.3,29.47,SSE,157,0.0,0.0,56,0.00,,---,0.00,0.00,VWS V14.01,2013-11-08 22:46:00,
2013-11-08 17:51:00,45.0,30.7,29.46,SW,225,0.0,0.0,57,0.00,,---,0.00,0.00,VWS V14.01,2013-11-08 22:51:00,
2013-11-08 17:56:00,44.0,29.8,29.46,SSE,157,0.0,0.0,57,0.00,,---,0.00,0.00,VWS V14.01,2013-11-08 22:56:00,
2013-11-08 18:01:00,44.0,30.2,29.47,SSE,157,0.0,0.0,58,0.00,,---,0.00,0.00,VWS V14.01,2013-11-08 23:01:00,
2013-11-08 18:06:00,44.0,31.4,29.47,SSE,157,0.0,0.0,61,0.00,,---,0.00,0.00,VWS V14.01,2013-11-08 23:06:00,
2013-11-08 18:11:00,43.0,30.1,29.47,SSE,157,0.0,0.0,60,0.00,,---,0.00,0.00,VWS V14.01,2013-11-08 23:11:00,
2013-11-08 18:16:00,42.0,29.5,29.47,SSE,157,0.0,0.0,61,0.00,,---,0.00,0.00,VWS V14.01,2013-11-08 23:16:00,
2013-11-08 18:21:00,42.0,29.5,29.47,SSE,157,0.0,0.0,61,0.00,,---,0.00,0.00,VWS V14.01,2013-11-08 23:21:00,
2013-11-08 18:26:00,41.0,30.1,29.47,SSE,157,0.0,0.0,65,0.00,,---,0.00,0.00,VWS V14.01,2013-11-08 23:26:00,
2013-11-08 18:31:00,41.0,29.8,29.47,SSE,157,0.0,0.0,64,0.00,,---,0.00,0.00,VWS V14.01,2013-11-08 23:31:00,
2013-11-08 18:36:00,41.0,29.4,29.47,SE,135,0.0,1.0,63,0.00,,---,0.00,0.00,VWS V14.01,2013-11-08 23:36:00,
2013-11-08 18:41:00,42.0,30.3,29.46,SE,135,0.0,0.0,63,0.00,,---,0.00,0.00,VWS V14.01,2013-11-08 23:41:00,
2013-11-08 18:46:00,42.0,31.1,29.46,SE,135,0.0,0.0,65,0.00,,---,0.00,0.00,VWS V14.01,2013-11-08 23:46:00,
2013-11-08 18:51:00,42.0,31.1,29.46,SE,135,0.0,0.0,65,0.00,,---,0.00,0.00,VWS V14.01,2013-11-08 23:51:00,
2013-11-08 18:56:00,42.0,30.7,29.46,SE,135,0.0,0.0,64,0.00,,---,0.00,0.00,VWS V14.01,2013-11-08 23:56:00,
2013-11-08 19:01:00,43.0,30.9,29.45,SE,135,1.0,1.0,62,0.00,,---,0.00,0.00,VWS V14.01,2013-11-09 00:01:00,
2013-11-08 19:06:00,43.0,30.5,29.45,SSE,157,0.0,2.0,61,0.00,,---,0.00,0.00,VWS V14.01,2013-11-09 00:06:00,
2013-11-08 19:11:00,43.0,30.1,29.45,SSE,157,0.0,2.0,60,0.00,,---,0.00,0.00,VWS V14.01,2013-11-09 00:11:00,
2013-11-08 19:16:00,43.0,30.5,29.45,SE,135,0.0,0.0,61,0.00,,---,0.00,0.00,VWS V14.01,2013-11-09 00:16:00,
2013-11-08 19:21:00,43.0,30.5,29.45,SSE,157,1.0,3.0,61,0.00,,---,0.00,0.00,VWS V14.01,2013-11-09 00:21:00,
2013-11-08 19:26:00,43.0,30.5,29.45,SE,135,0.0,1.0,61,0.00,,---,0.00,0.00,VWS V14.01,2013-11-09 00:26:00,
2013-11-08 19:31:00,43.0,30.5,29.45,SSE,157,0.0,1.0,61,0.00,,---,0.00,0.00,VWS V14.01,2013-11-09 00:31:00,
2013-11-08 19:36:00,43.0,30.1,29.45,SE,135,0.0,0.0,60,0.00,,---,0.00,0.00,VWS V14.01,2013-11-09 00:36:00,
2013-11-08 19:41:00,43.0,30.1,29.44,SE,135,3.0,4.0,60,0.00,,---,0.00,0.00,VWS V14.01,2013-11-09 00:41:00,
2013-11-08 19:46:00,43.0,29.7,29.44,SE,135,3.0,3.0,59,0.00,,---,0.00,0.00,VWS V14.01,2013-11-09 00:46:00,
2013-11-08 19:51:00,44.0,31.0,29.44,SE,135,3.0,4.0,60,0.00,,---,0.00,0.00,VWS V14.01,2013-11-09 00:51:00,
2013-11-08 19:56:00,44.0,31.0,29.44,SSE,157,6.0,8.0,60,0.00,,---,0.00,0.00,VWS V14.01,2013-11-09 00:56:00,
2013-11-08 20:01:00,44.0,30.6,29.44,SSE,157,3.0,5.0,59,0.00,,---,0.00,0.00,VWS V14.01,2013-11-09 01:01:00,
2013-11-08 20:06:00,44.0,31.0,29.44,ESE,112,3.0,4.0,60,0.00,,---,0.00,0.00,VWS V14.01,2013-11-09 01:06:00,
2013-11-08 20:11:00,44.0,31.0,29.44,SE,135,1.0,1.0,60,0.00,,---,0.00,0.00,VWS V14.01,2013-11-09 01:11:00,
2013-11-08 20:16:00,43.0,30.1,29.44,SE,135,0.0,0.0,60,0.00,,---,0.00,0.00,VWS V14.01,2013-11-09 01:16:00,
2013-11-08 20:21:00,43.0,30.1,29.44,SE,135,0.0,0.0,60,0.00,,---,0.00,0.00,VWS V14.01,2013-11-09 01:21:00,
2013-11-08 20:26:00,43.0,30.9,29.44,SSE,157,1.0,3.0,62,0.00,,---,0.00,0.00,VWS V14.01,2013-11-09 01:26:00,
2013-11-08 20:31:00,43.0,30.9,29.43,SSE,157,3.0,4.0,62,0.00,,---,0.00,0.00,VWS V14.01,2013-11-09 01:31:00,
2013-11-08 20:36:00,42.0,29.9,29.43,SE,135,0.0,3.0,62,0.00,,---,0.00,0.00,VWS V14.01,2013-11-09 01:36:00,
2013-11-08 20:41:00,43.0,30.9,29.43,ESE,112,2.0,3.0,62,0.00,,---,0.00,0.00,VWS V14.01,2013-11-09 01:41:00,
2013-11-08 20:46:00,42.0,30.3,29.43,ESE,112,3.0,5.0,63,0.00,,---,0.00,0.00,VWS V14.01,2013-11-09 01:46:00,
2013-11-08 20:51:00,43.0,30.9,29.43,SSE,157,1.0,4.0,62,0.00,,---,0.00,0.00,VWS V14.01,2013-11-09 01:51:00,
2013-11-08 20:56:00,42.0,30.3,29.43,South,180,3.0,4.0,63,0.00,,---,0.00,0.00,VWS V14.01,2013-11-09 01:56:00,
2013-11-08 21:01:00,43.0,30.9,29.42,South,180,6.0,6.0,62,0.00,,---,0.00,0.00,VWS V14.01,2013-11-09 02:01:00,
2013-11-08 21:06:00,43.0,30.9,29.42,SSE,157,2.0,7.0,62,0.00,,---,0.00,0.00,VWS V14.01,2013-11-09 02:06:00,
2013-11-08 21:11:00,43.0,30.9,29.42,ESE,112,0.0,6.0,62,0.00,,---,0.00,0.00,VWS V14.01,2013-11-09 02:11:00,
2013-11-08 21:16:00,43.0,31.3,29.42,South,180,3.0,4.0,63,0.00,,---,0.00,0.00,VWS V14.01,2013-11-09 02:16:00,
2013-11-08 21:21:00,43.0,30.9,29.41,SSE,157,4.0,9.0,62,0.00,,---,0.00,0.00,VWS V14.01,2013-11-09 02:21:00,
2013-11-08 21:26:00,43.0,31.3,29.41,SE,135,1.0,4.0,63,0.00,,---,0.00,0.00,VWS V14.01,2013-11-09 02:26:00,
2013-11-08 21:31:00,43.0,31.3,29.41,SE,135,2.0,4.0,63,0.00,,---,0.00,0.00,VWS V14.01,2013-11-09 02:31:00,
2013-11-08 21:36:00,43.0,31.7,29.41,SSE,157,0.0,2.0,64,0.00,,---,0.00,0.00,VWS V14.01,2013-11-09 02:36:00,
2013-11-08 21:41:00,43.0,31.7,29.41,SSE,157,0.0,3.0,64,0.00,,---,0.00,0.00,VWS V14.01,2013-11-09 02:41:00,
2013-11-08 21:46:00,43.0,31.7,29.41,South,180,2.0,3.0,64,0.00,,---,0.00,0.00,VWS V14.01,2013-11-09 02:46:00,
2013-11-08 21:51:00,43.0,31.3,29.42,SSE,157,0.0,4.0,63,0.00,,---,0.00,0.00,VWS V14.01,2013-11-09 02:51:00,
2013-11-08 21:56:00,43.0,31.7,29.42,SSW,202,2.0,3.0,64,0.00,,---,0.00,0.00,VWS V14.01,2013-11-09 02:56:00,
2013-11-08 22:01:00,43.0,31.7,29.42,SSW,202,0.0,4.0,64,0.00,,---,0.00,0.00,VWS V14.01,2013-11-09 03:01:00,
2013-11-08 22:06:00,43.0,31.3,29.42,ESE,112,5.0,6.0,63,0.00,,---,0.00,0.00,VWS V14.01,2013-11-09 03:06:00,
2013-11-08 22:11:00,43.0,31.3,29.43,SSE,157,2.0,4.0,63,0.00,,---,0.00,0.00,VWS V14.01,2013-11-09 03:11:00,
2013-11-08 22:16:00,43.0,31.3,29.43,South,180,2.0,3.0,63,0.00,,---,0.00,0.00,VWS V14.01,2013-11-09 03:16:00,
2013-11-08 22:21:00,43.0,31.3,29.43,SSW,202,2.0,4.0,63,0.00,,---,0.00,0.00,VWS V14.01,2013-11-09 03:21:00,
2013-11-08 22:26:00,43.0,30.9,29.43,SSW,202,0.0,4.0,62,0.00,,---,0.00,0.00,VWS V14.01,2013-11-09 03:26:00,
2013-11-08 22:31:00,43.0,30.9,29.43,SW,225,2.0,3.0,62,0.00,,---,0.00,0.00,VWS V14.01,2013-11-09 03:31:00,
2013-11-08 22:36:00,43.0,30.5,29.43,South,180,3.0,4.0,61,0.00,,---,0.00,0.00,VWS V14.01,2013-11-09 03:36:00,
2013-11-08 22:41:00,44.0,31.4,29.42,ESE,112,3.0,3.0,61,0.00,,---,0.00,0.00,VWS V14.01,2013-11-09 03:41:00,
2013-11-08 22:46:00,44.0,31.4,29.42,SE,135,4.0,9.0,61,0.00,,---,0.00,0.00,VWS V14.01,2013-11-09 03:46:00,
2013-11-08 22:51:00,44.0,31.4,29.41,SE,135,3.0,6.0,61,0.00,,---,0.00,0.00,VWS V14.01,2013-11-09 03:51:00,
2013-11-08 22:56:00,44.0,31.0,29.41,SSE,157,1.0,5.0,60,0.00,,---,0.00,0.00,VWS V14.01,2013-11-09 03:56:00,
2013-11-08 23:01:00,44.0,31.0,29.41,South,180,3.0,5.0,60,0.00,,---,0.00,0.00,VWS V14.01,2013-11-09 04:01:00,
2013-11-08 23:06:00,44.0,31.0,29.41,SE,135,3.0,6.0,60,0.00,,---,0.00,0.00,VWS V14.01,2013-11-09 04:06:00,
2013-11-08 23:11:00,44.0,31.0,29.41,South,180,0.0,5.0,60,0.00,,---,0.00,0.00,VWS V14.01,2013-11-09 04:11:00,
2013-11-08 23:16:00,44.0,31.4,29.41,SSE,157,1.0,5.0,61,0.00,,---,0.00,0.00,VWS V14.01,2013-11-09 04:16:00,
2013-11-08 23:21:00,44.0,31.0,29.41,SSE,157,3.0,6.0,60,0.00,,---,0.00,0.00,VWS V14.01,2013-11-09 04:21:00,
2013-11-08 23:26:00,44.0,31.0,29.41,ESE,112,3.0,10.0,60,0.00,,---,0.00,0.00,VWS V14.01,2013-11-09 04:26:00,
2013-11-08 23:31:00,44.0,31.0,29.40,SE,135,7.0,7.0,60,0.00,,---,0.00,0.00,VWS V14.01,2013-11-09 04:31:00,
2013-11-08 23:36:00,44.0,31.4,29.40,SW,225,5.0,8.0,61,0.00,,---,0.00,0.00,VWS V14.01,2013-11-09 04:36:00,
2013-11-08 23:41:00,44.0,31.0,29.39,South,180,3.0,8.0,60,0.00,,---,0.00,0.00,VWS V14.01,2013-11-09 04:41:00,
2013-11-08 23:46:00,44.0,31.4,29.39,South,180,4.0,6.0,61,0.00,,---,0.00,0.00,VWS V14.01,2013-11-09 04:46:00,
2013-11-08 23:51:00,44.0,31.0,29.39,South,180,3.0,5.0,60,0.00,,---,0.00,0.00,VWS V14.01,2013-11-09 04:51:00,
2013-11-08 23:56:00,44.0,30.6,29.39,SSE,157,7.0,8.0,59,0.00,,---,0.00,0.00,VWS V14.01,2013-11-09 04:56:00,